MST,Max TemperatureF,Mean TemperatureF,Min TemperatureF,Max Dew PointF,MeanDew PointF,Min DewpointF,Max Humidity, Mean Humidity, Min Humidity, Max Sea Level PressureIn, Mean Sea Level PressureIn, Min Sea Level PressureIn, Max VisibilityMiles, Mean VisibilityMiles, Min VisibilityMiles, Max Wind SpeedMPH, Mean Wind SpeedMPH, Max Gust SpeedMPH,PrecipitationIn, CloudCover, Events, WindDirDegrees
2013-1-1,26,17,7,18,14,6,92,77,62,30.62,30.53,30.32,10,10,9,7,3,8,T,6,,353
2013-1-2,28,19,10,14,12,6,84,70,55,30.66,30.61,30.47,10,10,10,6,3,7,0.00,4,,135
2013-1-3,18,12,6,10,7,3,92,80,67,30.61,30.54,30.45,10,10,7,5,0,6,0.00,0,,255
2013-1-4,22,13,4,16,10,2,92,82,71,30.56,30.49,30.30,10,8,4,6,0,7,T,6,Snow,277
2013-1-5,23,17,10,20,15,9,100,92,84,30.52,30.38,30.21,8,4,0,5,1,6,0.00,5,Fog,177
2013-1-6,31,25,19,24,21,17,96,87,78,30.27,30.18,30.09,10,7,3,6,1,25,T,8,Snow,351
2013-1-7,45,34,23,30,25,20,84,66,48,30.12,29.97,29.82,10,9,7,8,2,10,T,8,Snow,348
2013-1-8,44,40,35,31,27,22,82,61,40,30.14,30.04,29.89,10,10,10,22,6,30,T,7,,304
2013-1-9,48,41,34,36,34,28,92,73,53,30.00,29.79,29.65,10,6,0,20,5,24,0.45,7,Fog-Rain,56
2013-1-10,35,28,20,34,27,13,100,88,75,29.91,29.72,29.65,10,4,0,18,9,25,0.28,8,Fog-Snow,332
2013-1-11,21,12,3,13,9,0,87,72,57,30.35,30.08,29.87,10,7,2,17,6,20,0.02,7,Snow,107
2013-1-12,13,8,2,9,5,0,91,84,76,30.41,30.29,30.15,10,6,1,13,3,14,0.04,8,Snow,147
2013-1-13,16,8,0,6,4,-1,88,78,67,30.50,30.39,30.22,10,7,2,13,2,14,T,7,Snow,125
2013-1-14,17,13,8,13,8,3,92,86,80,30.51,30.39,30.23,10,5,1,10,2,12,0.02,8,Snow,177
2013-1-15,28,19,9,20,15,7,100,88,75,30.66,30.57,30.37,10,8,0,6,1,7,T,6,Fog,111
2013-1-16,20,14,8,16,10,5,100,89,77,30.71,30.56,30.47,10,2,0,8,1,9,0.01,4,Fog-Snow,94
2013-1-17,19,10,1,16,9,-1,100,92,83,30.73,30.54,30.32,10,3,0,6,1,7,0.01,4,Fog-Snow,259
2013-1-18,29,17,4,22,10,1,100,88,75,30.49,30.32,30.21,10,3,0,12,2,14,0.00,4,Fog,117
2013-1-19,31,21,10,21,15,9,96,86,75,30.54,30.46,30.37,10,9,2,7,1,8,0.00,0,,131
2013-1-20,31,21,10,22,16,9,100,85,69,30.57,30.50,30.40,10,9,4,6,1,7,0.00,0,,117
2013-1-21,26,15,4,19,9,1,100,90,80,30.49,30.35,30.20,10,3,0,6,1,6,T,1,Fog,170
2013-1-22,21,12,2,17,6,0,100,92,84,30.46,30.31,30.22,10,3,0,6,0,7,T,2,Fog-Snow,45
2013-1-23,28,19,10,22,14,9,92,81,69,30.32,30.19,30.00,10,6,1,10,2,14,T,2,,220
2013-1-24,43,35,26,29,26,23,92,72,51,30.26,30.20,30.08,10,9,6,14,4,17,T,6,,326
2013-1-25,37,33,29,33,29,26,100,88,75,30.22,30.11,29.96,10,8,4,13,3,14,0.03,8,Rain,351
2013-1-26,39,34,28,36,32,28,100,88,76,29.99,29.88,29.82,10,5,0,12,3,17,0.09,7,Fog-Rain,337
2013-1-27,37,31,24,29,26,22,100,76,52,30.01,29.96,29.86,10,9,2,7,3,7,T,7,Snow,338
2013-1-28,35,29,23,27,24,19,100,76,52,29.98,29.90,29.77,10,8,1,10,3,14,0.03,8,Snow,47
2013-1-29,34,29,23,27,26,23,100,89,78,30.21,29.98,29.78,10,4,0,10,2,13,0.16,8,Fog-Snow,300
2013-1-30,40,33,26,32,28,25,92,78,64,30.19,30.14,30.04,10,9,3,16,5,20,0.02,8,Rain-Snow,330
2013-1-31,41,38,34,33,32,29,96,80,64,30.25,30.21,30.17,10,10,10,14,5,17,T,8,Rain,332